{"data":{"norad_id":60111,"intl_designator":"2024-117W","name":"STARLINK-32015","alt_names":[],"object_type":"PAYLOAD","status":"ACTIVE","operator":null,"country":"US","launch_date":"2024-06-23","launch_site_code":"AFETR","launch_vehicle":null,"mission":null,"orbit_class":"UNKNOWN","rcs_meters":null,"size_class":null,"mass_kg":null,"dimensions":null,"purposes":["comms"],"wikipedia_slug":null,"has_3d_model":false,"image_url":null,"decayed_at":null,"tle_current":{"epoch":"2026-05-25T02:58:43.842720Z","epoch_age_seconds":71306,"freshness":"FRESH","line1":"1 60111U 24117W   26145.12411855  .00001343  00000+0  57457-4 0  9991","line2":"2 60111  53.1611  41.7547 0001249  76.8769 283.2371 15.30193171108595","mean_motion":15.30193171,"eccentricity":0.0001249,"inclination_deg":53.1611,"raan_deg":41.7547,"arg_perigee_deg":76.8769,"mean_anomaly_deg":283.2371,"bstar":5.7457e-5,"rev_number":10859,"period_min":94.105765683096,"perigee_km":474.37947343801,"apogee_km":476.09144587843,"semimajor_km":6853.3724596582,"source":"CELESTRAK","updated_at":"2026-05-25T13:38:19.164404Z"}}}